Location: Huesca
(42.1318°N, 0.4078°W)
Time: 19:41:58
(UTC+02:00)

ITAMSAT 1 - Pass Details

Date: 28 April 2024
Orbit: 781 x 796 km, 98.8° (Epoch: 27 May)

Event Time Altitude Azimuth Distance (km) Brightness Sun altitude
Exits shadow 22:57:18 15° 192° (SSW) 2,037 9.5 -19.6°
Maximum altitude 23:01:24 45° 261° (W) 1,074 8.6 -20.2°
Drops below altitude 10° 23:06:25 10° 334° (NNW) 2,372 11.2 -20.8°
Sets 23:08:51 0° 340° (NNW) 3,305 12.0 -21.1°
